Weather History for KDAW - May, 2012

Change the Weather History Date:

Saturday, May 26, 2012

  Actual Average (KSFM) Record (KSFM)
Temperature  
Mean Temperature 72 °F -  
Max Temperature 86 °F 65 °F 87 °F (2015)
Min Temperature 60 °F 43 °F 37 °F (2001)
Cooling Degree Days 7    
Growing Degree Days 22 (Base 50)    
Moisture  
Dew Point 60 °F    
Average Humidity 77    
Maximum Humidity 100    
Minimum Humidity 29    
Precipitation  
Precipitation 0.00 in - - ()
Sea Level Pressure  
Sea Level Pressure 30.05 in    
Wind  
Wind Speed 2 mph (NW)    
Max Wind Speed 12 mph    
Max Gust Speed 18 mph    
Visibility 5 miles    
Events Fog    
Averages and records for this station are not official NWS values.
T = Trace of Precipitation, MM = Missing Value Source: NWS Daily Summary

Daily Weather History Graph

Daily Weather History Graph

Search for Another Location

Airport or City:

Trip Planner

Search our weather history database for the weather conditions in past years. The results will help you decide how hot, cold, wet, or windy it might be!

Date:

Astronomy

May. 26, 2012 Rise Set
Actual Time 5:09 AM EDT 8:12 PM EDT
Civil Twilight 4:35 AM EDT 8:46 PM EDT
Nautical Twilight 3:51 AM EDT 9:30 PM EDT
Astronomical Twilight 3:00 AM EDT 10:22 PM EDT
Moon 10:11 AM EDT (5/26) No Moon Set
Length of Visible Light 16h 11m
Length of Day
15h 02m
Waxing Crescent, 28% of the Moon is Illuminated
May 26
Waxing Crescent
May 28
First Quarter
Jun 4
Full
Jun 11
Last Quarter
Jun 19
New

Hourly Weather History & Observations

Time (EDT) Temp. Heat Index Dew Point Humidity Pressure Visibility Wind Dir Wind Speed Gust Speed Precip Events Conditions
12:17 AM 62.6 °F - 60.8 °F 94% 30.08 in 0.8 mi SSE 3.5 mph - N/A   Mist
12:28 AM 60.8 °F - 60.8 °F 100% 30.07 in 0.2 mi SSE 4.6 mph - N/A Fog Fog
1:08 AM 62.6 °F - 60.8 °F 94% 30.07 in 0.5 mi Calm Calm - N/A Fog Fog
1:51 AM 63.0 °F - 62.1 °F 97% 30.05 in 0.8 mi Calm Calm - N/A   Mist
2:18 AM 62.6 °F - 62.6 °F 100% 30.06 in 0.2 mi Calm Calm - N/A Fog Fog
2:33 AM 62.6 °F - 62.6 °F 100% 30.05 in 0.5 mi Calm Calm - N/A Fog Fog
2:51 AM 63.0 °F - 62.1 °F 97% 30.05 in 0.2 mi Calm Calm - N/A Fog Fog
2:59 AM 62.6 °F - 62.6 °F 100% 30.06 in 0.5 mi Calm Calm - N/A Fog Fog
3:37 AM 62.6 °F - 62.6 °F 100% 30.05 in 1.8 mi Calm Calm - N/A   Overcast
3:44 AM 62.6 °F - 62.6 °F 100% 30.05 in 2.5 mi Calm Calm - N/A   Overcast
3:51 AM 63.0 °F - 62.1 °F 97% 30.04 in 4.0 mi Calm Calm - N/A   Overcast
4:25 AM 62.6 °F - 62.6 °F 100% 30.05 in 1.8 mi Calm Calm - N/A   Overcast
4:38 AM 62.6 °F - 62.6 °F 100% 30.05 in 0.8 mi Calm Calm - N/A   Mist
4:51 AM 63.0 °F - 63.0 °F 100% 30.04 in 0.5 mi Calm Calm - N/A Fog Fog
5:20 AM 62.6 °F - 62.6 °F 100% 30.06 in 1.0 mi Calm Calm - N/A   Mist
5:35 AM 62.6 °F - 62.6 °F 100% 30.05 in 1.2 mi Calm Calm - N/A   Scattered Clouds
5:51 AM 63.0 °F - 63.0 °F 100% 30.05 in 1.0 mi Calm Calm - N/A   Mist
6:01 AM 62.6 °F - 62.6 °F 100% 30.05 in 2.5 mi Calm Calm - N/A   Scattered Clouds
6:15 AM 64.4 °F - 62.6 °F 94% 30.05 in 3.0 mi Calm Calm - N/A   Partly Cloudy
6:51 AM 64.9 °F - 64.0 °F 97% 30.05 in 5.0 mi Variable 3.5 mph - N/A   Clear
7:51 AM 70.0 °F - 64.9 °F 84% 30.05 in 10.0 mi Variable 3.5 mph - N/A   Clear
8:51 AM 73.9 °F - 66.0 °F 76% 30.05 in 10.0 mi Calm Calm - N/A   Clear
9:51 AM 78.1 °F - 66.0 °F 66% 30.05 in 10.0 mi Variable 3.5 mph - N/A   Clear
10:51 AM 78.1 °F - 63.0 °F 60% 30.05 in 10.0 mi Variable 3.5 mph - N/A   Clear
11:51 AM 79.0 °F - 63.0 °F 58% 30.04 in 10.0 mi Calm Calm - N/A   Clear
12:51 PM 82.0 °F 82.0 °F 57.9 °F 44% 30.04 in 10.0 mi WNW 11.5 mph 18.4 mph N/A   Clear
1:51 PM 82.0 °F 82.0 °F 57.9 °F 44% 30.03 in 10.0 mi WNW 5.8 mph - N/A   Partly Cloudy
2:51 PM 84.9 °F 84.2 °F 57.9 °F 40% 30.02 in 10.0 mi Variable 3.5 mph - N/A   Clear
3:51 PM 84.9 °F 83.7 °F 55.9 °F 37% 30.02 in 10.0 mi NNW 10.4 mph 17.3 mph N/A   Clear
4:51 PM 84.9 °F - 52.0 °F 32% 30.01 in 10.0 mi NNW 8.1 mph 17.3 mph N/A   Clear
5:51 PM 82.9 °F - 48.0 °F 29% 30.02 in 10.0 mi North 8.1 mph - N/A   Clear
6:51 PM 81.0 °F - 46.0 °F 29% 30.04 in 10.0 mi NW 9.2 mph - N/A   Clear
7:51 PM 77.0 °F - 46.9 °F 34% 30.05 in 10.0 mi NW 4.6 mph - N/A   Clear
8:51 PM 73.9 °F - 48.9 °F 41% 30.06 in 10.0 mi NW 5.8 mph - N/A   Clear
9:51 PM 68.0 °F - 51.1 °F 55% 30.07 in 10.0 mi North 3.5 mph - N/A   Clear
11:51 PM 61.0 °F - 50.0 °F 67% 30.09 in 10.0 mi Calm Calm - N/A   Clear